Вернуться в каталог

CZ-2C DEB

АктивенSSO
NORAD 28483·DEBRIS·🇨🇳 China

Запущен Nov 18, 2004 с Xichang Satellite Launch Center

Loading…

Ближайшие Пролёты (ближайшие 24 часа)

TLE

СвежийSource: Space-Track

Эпоха: Sep 14, 2026, 14:37 UTC

1 28483U 04046E   26257.60911058  .00005926  00000-0  76209-3 0  9990
2 28483  98.2961  34.9107 0055374 303.8718 113.8258 14.80464822149966

Отслеживайте CZ-2C DEB в реальном времени с AllMySat

Download on the App Store